Location: Earls Croome
(52.0667°N, 2.2000°W)
Time: 12:47:17
(UTC+00:00)

Cosmos 1980 Rocket - Pass Details

Date: 17 November 2019
Orbit: 828 x 851 km, 71.0° (Epoch: 15 December)

Event Time Altitude Azimuth Distance (km) Brightness Sun altitude
Exits shadow 03:19:45 16° 126° (SE) 2,086 4.5 -38.1°
Drops below altitude 10° 03:20:50 10° 129° (SE) 2,473 4.9 -38.0°
Sets 03:23:20 0° 134° (SE) 3,402 5.6 -37.6°
